Time,TemperatureF,DewpointF,PressureIn,WindDirection,WindDirectionDegrees,WindSpeedMPH,WindSpeedGustMPH,Humidity,HourlyPrecipIn,Conditions,Clouds,dailyrainin,SoftwareType,DateUTC
2013-05-01 00:03:00,47.0,32.0,30.35,SSW,201,0.0,0.0,56,0.00,,,0.00,,2013-05-01 04:03:00,
2013-05-01 00:12:00,47.0,32.0,30.35,SSW,201,0.0,0.0,56,0.00,,,0.00,,2013-05-01 04:12:00,
2013-05-01 00:22:00,47.0,33.0,30.35,SSW,201,0.0,0.0,58,0.00,,,-99.99,,2013-05-01 04:22:00,
2013-05-01 00:32:00,47.0,33.0,30.35,SSW,201,0.0,0.0,58,0.00,,,0.00,,2013-05-01 04:32:00,
2013-05-01 00:43:00,47.0,33.0,30.35,SSW,201,0.0,0.0,58,0.00,,,0.00,,2013-05-01 04:43:00,
2013-05-01 00:52:00,46.0,33.0,30.36,SSW,201,0.0,0.0,60,0.00,,,0.00,,2013-05-01 04:52:00,
2013-05-01 01:02:00,46.0,33.0,30.37,SSW,201,0.0,0.0,60,0.00,,,0.00,,2013-05-01 05:02:00,
2013-05-01 01:12:00,46.0,33.0,30.37,SSW,201,0.0,0.0,60,0.00,,,0.00,,2013-05-01 05:12:00,
2013-05-01 01:22:00,46.0,35.0,30.37,SSW,201,0.0,0.0,65,0.00,,,0.14,,2013-05-01 05:22:00,
2013-05-01 01:32:00,45.0,34.0,30.37,SSW,201,0.0,0.0,65,0.00,,,0.14,,2013-05-01 05:32:00,
2013-05-01 01:42:00,45.0,34.0,30.37,SSW,201,0.0,0.0,65,0.00,,,0.14,,2013-05-01 05:42:00,
2013-05-01 01:52:00,44.0,33.0,30.37,SSW,201,0.0,0.0,65,0.00,,,0.14,,2013-05-01 05:52:00,
2013-05-01 02:02:00,44.0,34.0,30.37,SSW,201,0.0,0.0,68,0.00,,,0.14,,2013-05-01 06:02:00,
2013-05-01 02:12:00,44.0,34.0,30.37,SSW,201,0.0,0.0,68,0.00,,,0.14,,2013-05-01 06:12:00,
2013-05-01 02:22:00,43.0,33.0,30.37,SSW,201,0.0,0.0,68,0.00,,,0.14,,2013-05-01 06:22:00,
2013-05-01 02:32:00,43.0,34.0,30.38,SSW,201,0.0,0.0,69,0.00,,,0.14,,2013-05-01 06:32:00,
2013-05-01 02:42:00,43.0,34.0,30.38,SSW,201,0.0,0.0,69,0.00,,,0.14,,2013-05-01 06:42:00,
2013-05-01 02:51:00,43.0,33.0,30.37,SSW,201,0.0,0.0,68,0.00,,,0.14,,2013-05-01 06:51:00,
2013-05-01 03:01:00,43.0,35.0,30.37,SSW,201,0.0,0.0,72,0.00,,,0.14,,2013-05-01 07:01:00,
2013-05-01 03:11:00,43.0,35.0,30.37,SSW,201,0.0,0.0,72,0.00,,,0.14,,2013-05-01 07:11:00,
2013-05-01 03:21:00,42.0,34.0,30.38,SSW,201,0.0,0.0,73,0.00,,,0.14,,2013-05-01 07:21:00,
2013-05-01 03:32:00,42.0,35.0,30.38,SSW,201,0.0,0.0,75,0.00,,,0.14,,2013-05-01 07:32:00,
2013-05-01 03:42:00,42.0,35.0,30.38,SSW,201,0.0,0.0,75,0.00,,,0.14,,2013-05-01 07:42:00,
2013-05-01 03:52:00,42.0,34.0,30.39,SSW,201,0.0,0.0,74,0.00,,,0.14,,2013-05-01 07:52:00,
2013-05-01 04:02:00,42.0,35.0,30.39,SSW,201,0.0,0.0,75,0.00,,,0.14,,2013-05-01 08:02:00,
2013-05-01 04:12:00,42.0,35.0,30.39,SSW,201,0.0,0.0,75,0.00,,,0.14,,2013-05-01 08:12:00,
2013-05-01 04:22:00,41.0,34.0,30.40,SSW,201,0.0,0.0,76,0.00,,,0.14,,2013-05-01 08:22:00,
2013-05-01 04:32:00,41.0,34.0,30.40,SSW,201,0.0,0.0,76,0.00,,,0.14,,2013-05-01 08:32:00,
2013-05-01 04:42:00,41.0,34.0,30.40,SSW,201,0.0,0.0,76,0.00,,,0.14,,2013-05-01 08:42:00,
2013-05-01 04:53:00,41.0,34.0,30.40,SSW,201,0.0,0.0,76,0.00,,,0.14,,2013-05-01 08:53:00,
2013-05-01 05:01:00,41.0,35.0,30.40,SSW,201,0.0,0.0,79,0.00,,,0.14,,2013-05-01 09:01:00,
2013-05-01 05:12:00,41.0,35.0,30.40,SSW,201,0.0,0.0,79,0.00,,,0.14,,2013-05-01 09:12:00,
2013-05-01 05:21:00,40.0,35.0,30.40,SSW,201,0.0,0.0,82,0.00,,,0.14,,2013-05-01 09:21:00,
2013-05-01 05:33:00,40.0,35.0,30.40,SSW,201,0.0,0.0,82,0.00,,,0.14,,2013-05-01 09:33:00,
2013-05-01 05:43:00,40.0,35.0,30.40,SSW,201,0.0,0.0,82,0.00,,,0.14,,2013-05-01 09:43:00,
2013-05-01 05:53:00,40.0,34.0,30.41,SSW,201,0.0,0.0,80,0.00,,,0.14,,2013-05-01 09:53:00,
2013-05-01 06:03:00,40.0,34.0,30.41,SSW,201,0.0,0.0,79,0.00,,,0.14,,2013-05-01 10:03:00,
2013-05-01 06:12:00,40.0,34.0,30.41,SSW,201,0.0,0.0,79,0.00,,,0.14,,2013-05-01 10:12:00,
2013-05-01 06:22:00,40.0,34.0,30.42,SSW,201,0.0,0.0,79,0.00,,,0.14,,2013-05-01 10:22:00,
2013-05-01 06:33:00,40.0,34.0,30.42,SSW,201,0.0,0.0,78,0.00,,,0.14,,2013-05-01 10:33:00,
2013-05-01 06:42:00,40.0,34.0,30.42,SSW,201,0.0,0.0,78,0.00,,,0.14,,2013-05-01 10:42:00,
2013-05-01 06:53:00,40.0,34.0,30.43,SSW,201,0.0,0.0,80,0.00,,,0.14,,2013-05-01 10:53:00,
2013-05-01 07:02:00,40.0,35.0,30.43,SSW,201,0.0,0.0,82,0.00,,,0.14,,2013-05-01 11:02:00,
2013-05-01 07:11:00,40.0,35.0,30.43,SSW,201,0.0,0.0,82,0.00,,,0.14,,2013-05-01 11:11:00,
2013-05-01 07:22:00,40.0,35.0,30.44,SSW,201,0.0,0.0,83,0.00,,,0.14,,2013-05-01 11:22:00,
2013-05-01 07:32:00,41.0,34.0,30.44,SSW,201,0.0,0.0,77,0.00,,,0.14,,2013-05-01 11:32:00,
2013-05-01 07:42:00,41.0,34.0,30.44,SSW,201,0.0,0.0,77,0.00,,,0.14,,2013-05-01 11:42:00,
2013-05-01 07:52:00,43.0,35.0,30.45,SSW,201,0.0,0.0,73,0.00,,,0.14,,2013-05-01 11:52:00,
2013-05-01 08:01:00,44.0,35.0,30.45,SSW,201,0.0,0.0,71,0.00,,,0.14,,2013-05-01 12:01:00,
2013-05-01 08:11:00,44.0,35.0,30.45,SSW,201,0.0,0.0,71,0.00,,,0.14,,2013-05-01 12:11:00,
2013-05-01 08:21:00,47.0,36.0,30.46,SSW,201,0.0,0.0,65,0.00,,,0.14,,2013-05-01 12:21:00,
2013-05-01 08:32:00,50.0,37.0,30.46,SSW,201,0.0,0.0,60,0.00,,,0.14,,2013-05-01 12:32:00,
2013-05-01 08:42:00,50.0,37.0,30.46,SSW,201,0.0,0.0,60,0.00,,,0.14,,2013-05-01 12:42:00,
2013-05-01 08:52:00,53.0,34.0,30.46,SSW,201,0.0,0.0,48,0.00,,,0.14,,2013-05-01 12:52:00,
2013-05-01 09:01:00,55.0,35.0,30.47,SSW,201,0.0,0.0,46,0.00,,,0.14,,2013-05-01 13:01:00,
2013-05-01 09:11:00,55.0,35.0,30.47,SSW,201,0.0,0.0,46,0.00,,,0.14,,2013-05-01 13:11:00,
2013-05-01 09:22:00,57.0,34.0,30.46,SSW,201,0.0,0.0,42,0.00,,,0.14,,2013-05-01 13:22:00,
2013-05-01 09:32:00,59.0,33.0,30.46,SSW,201,0.0,0.0,37,0.00,,,0.14,,2013-05-01 13:32:00,
2013-05-01 09:42:00,59.0,33.0,30.46,SSW,201,0.0,0.0,37,0.00,,,0.14,,2013-05-01 13:42:00,
2013-05-01 09:52:00,60.0,33.0,30.46,SSW,201,0.0,0.0,36,0.00,,,0.14,,2013-05-01 13:52:00,
2013-05-01 10:02:00,60.0,32.0,30.46,SSW,201,0.0,0.0,35,0.00,,,0.14,,2013-05-01 14:02:00,
2013-05-01 10:11:00,60.0,32.0,30.46,SSW,201,0.0,0.0,35,0.00,,,0.14,,2013-05-01 14:11:00,
2013-05-01 10:22:00,61.0,31.0,30.46,SSW,201,0.0,0.0,32,0.00,,,0.14,,2013-05-01 14:22:00,
2013-05-01 10:32:00,62.0,30.0,30.46,SSW,201,0.0,0.0,30,0.00,,,0.14,,2013-05-01 14:32:00,
2013-05-01 10:42:00,62.0,30.0,30.46,SSW,201,0.0,0.0,30,0.00,,,0.14,,2013-05-01 14:42:00,
2013-05-01 10:52:00,64.0,30.0,30.46,SSW,201,0.0,0.0,28,0.00,,,0.14,,2013-05-01 14:52:00,
2013-05-01 11:01:00,64.0,27.0,30.46,SSW,201,0.0,0.0,25,0.00,,,0.14,,2013-05-01 15:01:00,
2013-05-01 11:11:00,64.0,27.0,30.46,SSW,201,0.0,0.0,25,0.00,,,0.14,,2013-05-01 15:11:00,
2013-05-01 11:22:00,65.0,30.0,30.46,East,101,0.0,0.0,27,0.00,,,0.14,,2013-05-01 15:22:00,
2013-05-01 11:33:00,66.0,28.0,30.45,East,101,0.0,0.0,24,0.00,,,0.14,,2013-05-01 15:33:00,
2013-05-01 11:43:00,66.0,28.0,30.45,East,101,0.0,0.0,24,0.00,,,0.14,,2013-05-01 15:43:00,
2013-05-01 11:53:00,66.0,27.0,30.45,East,101,0.0,0.0,23,0.00,,,0.14,,2013-05-01 15:53:00,
2013-05-01 12:03:00,66.0,28.0,30.45,East,101,0.0,0.0,24,0.00,,,0.14,,2013-05-01 16:03:00,
2013-05-01 12:12:00,66.0,28.0,30.45,East,101,0.0,0.0,24,0.00,,,0.14,,2013-05-01 16:12:00,
2013-05-01 12:22:00,67.0,31.0,30.45,East,101,0.0,0.0,26,0.00,,,0.14,,2013-05-01 16:22:00,
2013-05-01 12:32:00,68.0,31.0,30.45,NE,49,0.0,0.0,25,0.00,,,0.14,,2013-05-01 16:32:00,
2013-05-01 12:42:00,68.0,31.0,30.45,NE,49,0.0,0.0,25,0.00,,,0.14,,2013-05-01 16:42:00,
2013-05-01 12:53:00,68.0,32.0,30.45,NE,49,0.0,0.0,26,0.00,,,0.14,,2013-05-01 16:53:00,
2013-05-01 13:02:00,68.0,32.0,30.45,NE,56,0.0,0.0,26,0.00,,,0.14,,2013-05-01 17:02:00,
2013-05-01 13:12:00,68.0,32.0,30.45,NE,56,0.0,0.0,26,0.00,,,0.14,,2013-05-01 17:12:00,
2013-05-01 13:22:00,68.0,31.0,30.45,NE,56,0.0,0.0,25,0.00,,,0.14,,2013-05-01 17:22:00,
2013-05-01 13:32:00,68.0,34.0,30.45,NE,56,0.0,0.0,28,0.00,,,0.14,,2013-05-01 17:32:00,
2013-05-01 13:42:00,68.0,34.0,30.45,NE,56,0.0,0.0,28,0.00,,,0.14,,2013-05-01 17:42:00,
2013-05-01 13:52:00,69.0,34.0,30.45,NE,56,0.0,0.0,27,0.00,,,0.14,,2013-05-01 17:52:00,
2013-05-01 14:01:00,69.0,35.0,30.44,NE,56,0.0,0.0,29,0.00,,,0.14,,2013-05-01 18:01:00,
2013-05-01 14:11:00,69.0,35.0,30.44,NE,56,0.0,0.0,29,0.00,,,0.14,,2013-05-01 18:11:00,
2013-05-01 14:22:00,70.0,35.0,30.44,NE,56,0.0,0.0,28,0.00,,,0.14,,2013-05-01 18:22:00,
2013-05-01 14:32:00,69.0,40.0,30.44,NE,56,0.0,0.0,35,0.00,,,0.14,,2013-05-01 18:32:00,
2013-05-01 14:42:00,69.0,40.0,30.44,NE,56,0.0,0.0,35,0.00,,,0.14,,2013-05-01 18:42:00,
2013-05-01 14:52:00,69.0,36.0,30.44,NE,56,0.0,0.0,30,0.00,,,0.14,,2013-05-01 18:52:00,
2013-05-01 15:02:00,69.0,31.0,30.43,NE,56,0.0,0.0,24,0.00,,,0.14,,2013-05-01 19:02:00,
2013-05-01 15:11:00,69.0,31.0,30.43,NE,56,0.0,0.0,24,0.00,,,0.14,,2013-05-01 19:11:00,
2013-05-01 15:22:00,69.0,30.0,30.43,NE,56,0.0,0.0,23,0.00,,,0.14,,2013-05-01 19:22:00,
2013-05-01 15:32:00,70.0,30.0,30.44,NE,56,0.0,0.0,23,0.00,,,0.14,,2013-05-01 19:32:00,
2013-05-01 15:43:00,70.0,30.0,30.44,NE,56,0.0,0.0,23,0.00,,,0.14,,2013-05-01 19:43:00,
2013-05-01 15:52:00,70.0,35.0,30.43,NE,56,0.0,0.0,28,0.00,,,0.14,,2013-05-01 19:52:00,
2013-05-01 16:02:00,70.0,39.0,30.43,NE,56,0.0,0.0,32,0.00,,,0.14,,2013-05-01 20:02:00,
2013-05-01 16:11:00,70.0,39.0,30.43,NE,56,0.0,0.0,32,0.00,,,0.14,,2013-05-01 20:11:00,
2013-05-01 16:21:00,69.0,41.0,30.43,SW,225,0.0,0.0,36,0.00,,,0.14,,2013-05-01 20:21:00,
2013-05-01 16:32:00,70.0,43.0,30.43,SSW,204,0.0,0.0,37,0.00,,,0.14,,2013-05-01 20:32:00,
2013-05-01 16:42:00,70.0,43.0,30.43,SSW,204,0.0,0.0,37,0.00,,,0.14,,2013-05-01 20:42:00,
2013-05-01 16:52:00,69.0,42.0,30.43,SSW,204,0.0,0.0,38,0.00,,,0.14,,2013-05-01 20:52:00,
2013-05-01 17:01:00,68.0,43.0,30.43,SSW,204,0.0,0.0,40,0.00,,,0.14,,2013-05-01 21:01:00,
2013-05-01 17:11:00,68.0,43.0,30.43,SSW,204,0.0,0.0,40,0.00,,,0.14,,2013-05-01 21:11:00,
2013-05-01 17:22:00,68.0,44.0,30.43,SSW,204,0.0,0.0,42,0.00,,,0.14,,2013-05-01 21:22:00,
2013-05-01 17:32:00,68.0,45.0,30.44,South,172,0.0,0.0,44,0.00,,,0.14,,2013-05-01 21:32:00,
2013-05-01 17:43:00,68.0,45.0,30.44,South,172,0.0,0.0,44,0.00,,,0.14,,2013-05-01 21:43:00,
2013-05-01 17:53:00,67.0,44.0,30.44,South,172,0.0,0.0,44,0.00,,,0.14,,2013-05-01 21:53:00,
2013-05-01 18:03:00,67.0,45.0,30.44,South,172,0.0,0.0,45,0.00,,,0.14,,2013-05-01 22:03:00,
2013-05-01 18:12:00,67.0,45.0,30.44,South,172,0.0,0.0,45,0.00,,,0.14,,2013-05-01 22:12:00,
2013-05-01 18:23:00,66.0,45.0,30.45,South,172,0.0,0.0,46,0.00,,,0.14,,2013-05-01 22:23:00,
2013-05-01 18:33:00,65.0,44.0,30.45,South,172,0.0,0.0,46,0.00,,,0.14,,2013-05-01 22:33:00,
2013-05-01 18:42:00,65.0,44.0,30.45,South,172,0.0,0.0,46,0.00,,,0.14,,2013-05-01 22:42:00,
2013-05-01 18:52:00,65.0,44.0,30.45,South,172,0.0,0.0,46,0.00,,,0.14,,2013-05-01 22:52:00,
2013-05-01 19:02:00,64.0,43.0,30.46,South,172,0.0,0.0,47,0.00,,,0.14,,2013-05-01 23:02:00,
2013-05-01 19:12:00,64.0,43.0,30.46,South,172,0.0,0.0,47,0.00,,,0.14,,2013-05-01 23:12:00,
2013-05-01 19:21:00,63.0,43.0,30.46,South,172,0.0,0.0,48,0.00,,,0.14,,2013-05-01 23:21:00,
2013-05-01 19:32:00,62.0,43.0,30.47,South,172,0.0,0.0,50,0.00,,,0.14,,2013-05-01 23:32:00,
2013-05-01 19:42:00,62.0,43.0,30.47,South,172,0.0,0.0,50,0.00,,,0.14,,2013-05-01 23:42:00,
2013-05-01 19:52:00,61.0,43.0,30.47,South,172,0.0,0.0,51,0.00,,,0.14,,2013-05-01 23:52:00,
2013-05-01 20:01:00,60.0,43.0,30.47,South,172,0.0,0.0,53,0.00,,,0.14,,2013-05-02 00:01:00,
2013-05-01 20:11:00,60.0,43.0,30.47,South,172,0.0,0.0,53,0.00,,,0.14,,2013-05-02 00:11:00,
2013-05-01 20:21:00,59.0,42.0,30.47,South,172,0.0,0.0,54,0.00,,,0.14,,2013-05-02 00:21:00,
2013-05-01 20:32:00,59.0,43.0,30.48,South,172,0.0,0.0,55,0.00,,,0.14,,2013-05-02 00:32:00,
2013-05-01 20:42:00,59.0,43.0,30.48,South,172,0.0,0.0,55,0.00,,,0.14,,2013-05-02 00:42:00,
2013-05-01 20:52:00,58.0,43.0,30.48,South,172,0.0,0.0,57,0.00,,,0.14,,2013-05-02 00:52:00,
2013-05-01 21:01:00,57.0,42.0,30.48,South,172,0.0,0.0,57,0.00,,,0.14,,2013-05-02 01:01:00,
2013-05-01 21:11:00,57.0,42.0,30.48,South,172,0.0,0.0,57,0.00,,,0.14,,2013-05-02 01:11:00,
2013-05-01 21:22:00,56.0,41.0,30.49,South,172,0.0,0.0,58,0.00,,,0.14,,2013-05-02 01:22:00,
2013-05-01 21:32:00,56.0,42.0,30.49,South,172,0.0,0.0,59,0.00,,,0.14,,2013-05-02 01:32:00,
2013-05-01 21:42:00,56.0,42.0,30.49,South,172,0.0,0.0,59,0.00,,,0.14,,2013-05-02 01:42:00,
2013-05-01 21:52:00,55.0,41.0,30.49,South,172,0.0,0.0,60,0.00,,,0.14,,2013-05-02 01:52:00,
2013-05-01 22:02:00,55.0,42.0,30.49,South,172,0.0,0.0,61,0.00,,,0.14,,2013-05-02 02:02:00,
2013-05-01 22:12:00,55.0,42.0,30.49,South,172,0.0,0.0,61,0.00,,,0.14,,2013-05-02 02:12:00,
2013-05-01 22:21:00,54.0,42.0,30.50,South,172,0.0,0.0,63,0.00,,,0.14,,2013-05-02 02:21:00,
2013-05-01 22:32:00,54.0,42.0,30.50,South,172,0.0,0.0,64,0.00,,,0.14,,2013-05-02 02:32:00,
2013-05-01 22:42:00,54.0,42.0,30.50,South,172,0.0,0.0,64,0.00,,,0.14,,2013-05-02 02:42:00,
2013-05-01 22:51:00,54.0,42.0,30.50,South,172,0.0,0.0,64,0.00,,,0.14,,2013-05-02 02:51:00,
2013-05-01 23:01:00,52.0,43.0,30.50,South,172,0.0,0.0,70,0.00,,,0.14,,2013-05-02 03:01:00,
2013-05-01 23:11:00,52.0,43.0,30.50,South,172,0.0,0.0,70,0.00,,,0.14,,2013-05-02 03:11:00,
2013-05-01 23:22:00,51.0,42.0,30.50,South,172,0.0,0.0,72,0.00,,,0.14,,2013-05-02 03:22:00,
2013-05-01 23:33:00,50.0,42.0,30.50,South,172,0.0,0.0,74,0.00,,,0.14,,2013-05-02 03:33:00,
2013-05-01 23:43:00,50.0,42.0,30.50,South,172,0.0,0.0,74,0.00,,,0.14,,2013-05-02 03:43:00,
2013-05-01 23:53:00,50.0,42.0,30.50,South,172,0.0,0.0,75,0.00,,,0.14,,2013-05-02 03:53:00,